MHLC

Golosón International Airport

Airport
ICAO code
MHLC
IATA Code
LCE
Summary
ICAO Region
CARSAM
ICAO Territory
Location

La Ceiba, Atlantida Department

Serving
La Ceiba
Elevation
39 ft
Coordinates
15° 44' 34" N , 86° 51' 7" W
KCC
Airport WX
Tropical Revolving Storm
Metar
MHLC 142200Z 03006KT 9999 FEW030 BKN070 31/26 Q1006 A2971 NOSIG

Golosón International Airport (Spanish: Aeropuerto Internacional Golosón) is an airport located on the western side of the city of La Ceiba, in the Atlántida Department on the north coast of Honduras. It is also known as La Ceiba Airport and Hector C. Moncada Air Base.

Climatology

Tropical Savanna climate (Köppen climate classification Aw)

Runways

Designator Length Width Surface Rops
7/25 3010 45 ASP Yes/Yes

Airport map

Aerial View

SKYbrary Partners:

Safety knowledge contributed by: